Miscellaneous Local Product
Issued by NWS Hastings, NE

Home | Current Version | Previous Version | Text Only | Print | Product List | Glossary Off
Versions: 1 2 3 4 5 6 7 8 9 10 11 12 13 14 15 16 17 18 19 20 21 22 23 24 25 26 27 28 29 30 31 32 33 34 35 36 37 38 39 40 41 42 43 44 45 46 47 48 49 50

853
AXUS43 KGID 300602
MISGRI

GID CWA HOURLY WEATHER ROUNDUP
NATIONAL WEATHER SERVICE HASTINGS NE
100 AM CDT MON MAY 30 2016

NOTE: "FAIR" INDICATES FEW OR NO CLOUDS BELOW 12,000 FEET WITH NO
SIGNIFICANT WEATHER AND/OR OBSTRUCTIONS TO VISIBILITY.

...SOUTH CENTRAL NEBRASKA...

CITY           SKY/WX    TMP DP  RH WIND       PRES   REMARKS
GRAND ISLAND   MOCLDY    69  51  52 SW18      30.04S
HASTINGS       CLOUDY    66  52  60 S8        30.06S
KEARNEY        CLOUDY    64  50  59 S15       30.07R
ORD            CLOUDY    68  59  73 S10       30.00S
YORK           CLOUDY    66  54  63 SW13      30.02F
AURORA         CLOUDY    65  55  70 S12       30.03F
LEXINGTON      CLOUDY    65  51  59 S10       30.05R
HOLDREGE       PTCLDY    65  48  55 SW8       30.07S
HEBRON         CLOUDY    68  51  53 NW15G23   30.05F

...NEBRASKA PANHANDLE...

CITY           SKY/WX    TMP DP  RH WIND       PRES   REMARKS
CHADRON        CLOUDY    52  48  86 W6        29.97R
ALLIANCE       CLOUDY    58  53  84 S13       30.03R
SCOTTSBLUFF    CLOUDY    59  44  57 SE9       30.03S
SIDNEY         CLOUDY    56  51  84 S13       30.08S

...WESTERN AND NORTH CENTRAL NEBRASKA...

CITY           SKY/WX    TMP DP  RH WIND       PRES   REMARKS
VALENTINE      CLOUDY    65  51  60 S8        30.00F
AINSWORTH      RAIN      64  53  67 SW17G25   30.02F
ONEILL         CLOUDY    69  58  69 S7        29.99F
BROKEN BOW     CLOUDY    60  56  86 CALM      30.03R
IMPERIAL       LGT RAIN  60  52  74 S8        30.13F
NORTH PLATTE   CLOUDY    61  53  75 W8        30.07R
MCCOOK         CLOUDY    64  52  64 SE8       30.07R

...EASTERN NEBRASKA...

CITY           SKY/WX    TMP DP  RH WIND       PRES   REMARKS
NORFOLK        CLOUDY    68  56  65 CALM      30.02R
SO SIOUX CITY  CLOUDY    67  56  67 SE5       30.00S
TEKAMAH          N/A    N/A N/A N/A MISG      30.00S
COLUMBUS       CLOUDY    68  52  56 S5        30.03F
ALBION         CLOUDY    67  51  58 SW29G49   30.04R
OMAHA EPPLEY   CLOUDY    73  61  65 SE7       30.00F
MILLARD        CLOUDY    70  61  75 CALM      30.01S
LINCOLN        CLOUDY    67  62  84 CALM      30.01F
NEBRASKA CITY  CLOUDY    69  62  79 SW7       30.04R
BEATRICE       CLOUDY    70  59  66 S9        30.03F
FALLS CITY     CLOUDY    70  64  81 S7        30.03S

...NORTHERN KANSAS...

CITY           SKY/WX    TMP DP  RH WIND       PRES   REMARKS
GOODLAND       LGT RAIN  57  52  83 E9        30.14R
HILL CITY      CLOUDY    63  53  70 SE8       30.03F
NORTON         CLEAR     59  48  67 CALM      30.06S
PHILLIPSBURG   CLEAR     63  54  72 CALM      30.05F
SMITH CENTER   CLEAR     57  54  88 CALM      30.05F
BELOIT         CLEAR     64  61  88 E10       30.04R
HAYS           CLOUDY    61  52  72 CALM      30.04F
RUSSELL        NOT AVBL
CONCORDIA      PTCLDY    64  60  87 E5        30.05F
SALINA         CLOUDY    67  61  81 SE6       30.05F
TOPEKA         CLOUDY    67  65  93 CALM      30.06R



USA.gov is the U.S. government's official web portal to all federal, state and local government web resources and services.